Time,TemperatureF,DewpointF,PressureIn,WindDirection,WindDirectionDegrees,WindSpeedMPH,WindSpeedGustMPH,Humidity,HourlyPrecipIn,Conditions,Clouds,dailyrainin,SoftwareType,DateUTC
2013-04-19 00:00:00,69.4,53.1,0.00,WSW,250,3.1,4.0,56,0.00,,---,0.00,VWS V13.01,2013-04-19 04:00:00,
2013-04-19 00:01:00,69.4,53.1,0.00,ESE,117,5.4,7.6,56,0.00,,---,0.00,VWS V13.01,2013-04-19 04:01:00,
2013-04-19 00:02:00,69.4,53.1,0.00,SW,222,5.4,7.6,56,0.00,,---,0.00,VWS V13.01,2013-04-19 04:02:00,
2013-04-19 00:03:00,69.4,53.6,0.00,SE,143,4.0,7.6,57,0.00,,---,0.00,VWS V13.01,2013-04-19 04:03:00,
2013-04-19 00:08:00,69.3,53.4,0.00,SSW,194,3.6,7.6,57,0.00,,---,0.00,VWS V13.01,2013-04-19 04:08:00,
2013-04-19 00:13:00,69.1,53.7,0.00,ENE,67,3.6,8.1,58,0.00,,---,0.00,VWS V13.01,2013-04-19 04:13:00,
2013-04-19 00:18:00,68.9,54.5,0.00,West,270,2.2,8.1,60,0.00,,---,0.00,VWS V13.01,2013-04-19 04:18:00,
2013-04-19 00:23:00,68.7,54.3,0.00,SSW,201,2.7,6.3,60,0.00,,---,0.00,VWS V13.01,2013-04-19 04:23:00,
2013-04-19 00:28:00,68.5,54.6,0.00,NW,306,4.0,6.3,61,0.00,,---,0.00,VWS V13.01,2013-04-19 04:28:00,
2013-04-19 00:33:00,68.5,55.5,0.00,ESE,108,3.6,8.7,63,0.00,,---,0.00,VWS V13.01,2013-04-19 04:33:00,
2013-04-19 00:38:00,68.4,55.7,0.00,WSW,241,3.1,8.7,64,0.00,,---,0.00,VWS V13.01,2013-04-19 04:38:00,
2013-04-19 00:43:00,68.2,56.0,0.00,SSW,204,5.8,8.7,65,0.00,,---,0.00,VWS V13.01,2013-04-19 04:43:00,
2013-04-19 00:48:00,68.2,56.4,0.00,SW,236,6.3,8.7,66,0.00,,---,0.00,VWS V13.01,2013-04-19 04:48:00,
2013-04-19 00:53:00,68.0,56.2,0.00,SW,225,3.6,8.7,66,0.00,,---,0.00,VWS V13.01,2013-04-19 04:53:00,
2013-04-19 00:58:00,67.8,56.5,0.00,SW,217,0.0,8.7,67,0.00,,---,0.00,VWS V13.01,2013-04-19 04:58:00,
2013-04-19 01:03:00,67.6,56.7,0.00,SW,218,3.1,3.6,68,0.00,,---,0.00,VWS V13.01,2013-04-19 05:03:00,
2013-04-19 01:08:00,67.6,57.1,0.00,SSW,203,2.7,6.3,69,0.00,,---,0.00,VWS V13.01,2013-04-19 05:08:00,
2013-04-19 01:13:00,67.6,57.1,0.00,SE,124,2.2,6.3,69,0.00,,---,0.00,VWS V13.01,2013-04-19 05:13:00,
2013-04-19 01:18:00,67.5,57.3,0.00,ESE,118,2.7,8.3,70,0.00,,---,0.00,VWS V13.01,2013-04-19 05:18:00,
2013-04-19 01:23:00,67.5,57.7,0.00,WNW,299,4.0,8.7,71,0.00,,---,0.00,VWS V13.01,2013-04-19 05:23:00,
2013-04-19 01:28:00,67.5,57.7,0.00,SW,233,5.8,8.7,71,0.00,,---,0.00,VWS V13.01,2013-04-19 05:28:00,
2013-04-19 01:33:00,67.5,57.7,0.00,SSW,199,6.7,10.5,71,0.00,,---,0.00,VWS V13.01,2013-04-19 05:33:00,
2013-04-19 01:38:00,67.5,57.7,0.00,WSW,249,3.1,10.5,71,0.00,,---,0.00,VWS V13.01,2013-04-19 05:38:00,
2013-04-19 01:43:00,67.5,57.7,0.00,WNW,300,2.7,8.1,71,0.00,,---,0.00,VWS V13.01,2013-04-19 05:43:00,
2013-04-19 01:48:00,67.6,57.9,0.00,SSW,212,0.0,8.1,71,0.00,,---,0.00,VWS V13.01,2013-04-19 05:48:00,
2013-04-19 01:53:00,67.6,57.9,0.00,SSW,198,2.7,8.1,71,0.00,,---,0.00,VWS V13.01,2013-04-19 05:53:00,
2013-04-19 01:59:00,67.6,57.9,0.00,SW,222,0.0,8.1,71,0.00,,---,0.00,VWS V13.01,2013-04-19 05:59:00,
2013-04-19 02:04:00,67.5,57.7,0.00,SW,214,0.0,6.3,71,0.00,,---,0.00,VWS V13.01,2013-04-19 06:04:00,
2013-04-19 02:09:00,67.6,57.9,0.00,East,97,0.0,6.3,71,0.00,,---,0.00,VWS V13.01,2013-04-19 06:09:00,
2013-04-19 02:14:00,67.6,57.9,0.00,SW,221,0.0,7.6,71,0.00,,---,0.00,VWS V13.01,2013-04-19 06:14:00,
2013-04-19 02:19:00,67.6,57.9,0.00,South,176,4.0,7.6,71,0.00,,---,0.00,VWS V13.01,2013-04-19 06:19:00,
2013-04-19 02:24:00,67.6,57.9,0.00,SE,146,6.7,6.7,71,0.00,,---,0.00,VWS V13.01,2013-04-19 06:24:00,
2013-04-19 02:29:00,67.6,57.5,0.00,SSW,206,3.6,10.1,70,0.00,,---,0.00,VWS V13.01,2013-04-19 06:29:00,
2013-04-19 02:34:00,67.6,57.5,0.00,SSW,195,2.7,10.1,70,0.00,,---,0.00,VWS V13.01,2013-04-19 06:34:00,
2013-04-19 02:39:00,67.6,57.5,0.00,SW,216,0.0,10.1,70,0.00,,---,0.00,VWS V13.01,2013-04-19 06:39:00,
2013-04-19 02:44:00,67.6,57.5,0.00,South,187,5.8,5.8,70,0.00,,---,0.00,VWS V13.01,2013-04-19 06:44:00,
2013-04-19 02:49:00,67.6,57.5,0.00,East,96,3.6,8.1,70,0.00,,---,0.00,VWS V13.01,2013-04-19 06:49:00,
2013-04-19 02:54:00,67.6,57.5,0.00,SW,220,6.3,8.1,70,0.00,,---,0.00,VWS V13.01,2013-04-19 06:54:00,
2013-04-19 02:59:00,67.6,57.5,0.00,ESE,110,3.1,8.1,70,0.00,,---,0.00,VWS V13.01,2013-04-19 06:59:00,
2013-04-19 03:04:00,67.6,57.5,0.00,SSE,151,3.1,4.9,70,0.00,,---,0.00,VWS V13.01,2013-04-19 07:04:00,
2013-04-19 03:09:00,67.6,57.5,0.00,South,191,3.6,5.4,70,0.00,,---,0.00,VWS V13.01,2013-04-19 07:09:00,
2013-04-19 03:14:00,67.6,57.5,0.00,SSW,194,2.7,5.4,70,0.00,,---,0.00,VWS V13.01,2013-04-19 07:14:00,
2013-04-19 03:19:00,67.6,57.9,0.00,SSW,192,4.0,8.7,71,0.00,,---,0.00,VWS V13.01,2013-04-19 07:19:00,
2013-04-19 03:24:00,67.6,57.5,0.00,SSE,155,2.2,8.7,70,0.00,,---,0.00,VWS V13.01,2013-04-19 07:24:00,
2013-04-19 03:29:00,67.6,57.5,0.00,WSW,241,2.2,8.7,70,0.00,,---,0.00,VWS V13.01,2013-04-19 07:29:00,
2013-04-19 03:34:00,67.6,57.9,0.00,SW,221,2.7,8.7,71,0.00,,---,0.00,VWS V13.01,2013-04-19 07:34:00,
2013-04-19 03:39:00,67.5,57.7,0.00,SE,145,2.7,8.7,71,0.00,,---,0.00,VWS V13.01,2013-04-19 07:39:00,
2013-04-19 03:44:00,67.5,57.7,0.00,SE,142,0.0,0.0,71,0.00,,---,0.00,VWS V13.01,2013-04-19 07:44:00,
2013-04-19 03:49:00,67.5,57.7,0.00,WNW,296,0.0,3.6,71,0.00,,---,0.00,VWS V13.01,2013-04-19 07:49:00,
2013-04-19 03:54:00,67.5,57.7,0.00,SW,228,0.0,5.4,71,0.00,,---,0.00,VWS V13.01,2013-04-19 07:54:00,
2013-04-19 03:59:00,67.5,57.7,0.00,SSW,209,0.0,5.4,71,0.00,,---,0.00,VWS V13.01,2013-04-19 07:59:00,
2013-04-19 04:04:00,67.5,57.7,0.00,WNW,291,3.1,4.0,71,0.00,,---,0.00,VWS V13.01,2013-04-19 08:04:00,
2013-04-19 04:09:00,67.5,57.7,0.00,SW,222,3.1,6.3,71,0.00,,---,0.00,VWS V13.01,2013-04-19 08:09:00,
2013-04-19 04:14:00,67.5,58.1,0.00,SSW,210,0.0,6.3,72,0.00,,---,0.00,VWS V13.01,2013-04-19 08:14:00,
2013-04-19 04:19:00,67.5,58.1,0.00,SW,231,3.1,6.3,72,0.00,,---,0.00,VWS V13.01,2013-04-19 08:19:00,
2013-04-19 04:24:00,67.5,58.1,0.00,SSW,195,3.6,4.5,72,0.00,,---,0.00,VWS V13.01,2013-04-19 08:24:00,
2013-04-19 04:29:00,67.3,58.0,0.00,ESE,123,0.0,6.3,72,0.00,,---,0.00,VWS V13.01,2013-04-19 08:29:00,
2013-04-19 04:34:00,67.1,57.8,0.00,SW,223,3.1,6.3,72,0.00,,---,0.00,VWS V13.01,2013-04-19 08:34:00,
2013-04-19 04:39:00,67.1,58.2,0.00,South,179,0.0,6.3,73,0.00,,---,0.00,VWS V13.01,2013-04-19 08:39:00,
2013-04-19 04:44:00,67.1,58.2,0.00,SW,216,4.0,5.4,73,0.00,,---,0.00,VWS V13.01,2013-04-19 08:44:00,
2013-04-19 04:49:00,67.1,58.2,0.00,SW,224,2.7,5.4,73,0.00,,---,0.00,VWS V13.01,2013-04-19 08:49:00,
2013-04-19 04:54:00,67.1,58.2,0.00,SSW,197,3.1,5.4,73,0.00,,---,0.00,VWS V13.01,2013-04-19 08:54:00,
2013-04-19 04:59:00,67.1,58.5,0.00,SW,222,4.0,5.4,74,0.00,,---,0.00,VWS V13.01,2013-04-19 08:59:00,
2013-04-19 05:04:00,67.1,58.5,0.00,SW,215,4.9,5.4,74,0.00,,---,0.00,VWS V13.01,2013-04-19 09:04:00,
2013-04-19 05:09:00,67.1,58.5,0.00,SSW,206,2.7,5.4,74,0.00,,---,0.00,VWS V13.01,2013-04-19 09:09:00,
2013-04-19 05:14:00,67.1,58.5,0.00,SSW,194,3.6,5.8,74,0.00,,---,0.00,VWS V13.01,2013-04-19 09:14:00,
2013-04-19 05:19:00,66.9,58.8,0.00,NNW,345,0.0,5.8,75,0.00,,---,0.00,VWS V13.01,2013-04-19 09:19:00,
2013-04-19 05:24:00,67.1,58.9,0.00,South,189,3.6,4.5,75,0.00,,---,0.00,VWS V13.01,2013-04-19 09:24:00,
2013-04-19 05:29:00,67.1,58.9,0.00,SW,233,0.0,5.4,75,0.00,,---,0.00,VWS V13.01,2013-04-19 09:29:00,
2013-04-19 05:34:00,67.1,58.9,0.00,SW,225,3.1,5.4,75,0.00,,---,0.00,VWS V13.01,2013-04-19 09:34:00,
2013-04-19 05:39:00,67.1,58.9,0.00,SSW,209,2.7,5.4,75,0.00,,---,0.00,VWS V13.01,2013-04-19 09:39:00,
2013-04-19 05:44:00,67.1,58.9,0.00,SW,235,0.0,5.4,75,0.00,,---,0.00,VWS V13.01,2013-04-19 09:44:00,
2013-04-19 05:49:00,67.1,59.3,0.00,SSW,192,2.7,5.8,76,0.00,,---,0.00,VWS V13.01,2013-04-19 09:49:00,
2013-04-19 05:54:00,67.1,58.9,0.00,SW,220,2.7,5.8,75,0.00,,---,0.00,VWS V13.01,2013-04-19 09:54:00,
2013-04-19 05:59:00,67.1,59.3,0.00,SSE,152,3.6,5.8,76,0.00,,---,0.00,VWS V13.01,2013-04-19 09:59:00,
2013-04-19 06:04:00,67.3,59.5,0.00,SSE,163,0.0,6.7,76,0.00,,---,0.00,VWS V13.01,2013-04-19 10:04:00,
2013-04-19 06:09:00,67.3,59.5,0.00,East,94,0.0,6.7,76,0.00,,---,0.00,VWS V13.01,2013-04-19 10:09:00,
2013-04-19 06:15:00,67.3,59.5,0.00,WSW,258,0.0,6.7,76,0.00,,---,0.00,VWS V13.01,2013-04-19 10:15:00,
2013-04-19 06:20:00,67.3,59.5,0.00,ESE,103,0.0,6.7,76,0.00,,---,0.00,VWS V13.01,2013-04-19 10:20:00,
2013-04-19 06:25:00,67.3,59.8,0.00,SSW,208,2.7,6.3,77,0.00,,---,0.00,VWS V13.01,2013-04-19 10:25:00,
2013-04-19 06:30:00,67.3,59.5,0.00,SSW,192,0.0,6.3,76,0.00,,---,0.00,VWS V13.01,2013-04-19 10:30:00,
2013-04-19 06:35:00,67.3,59.8,0.00,SE,135,0.0,7.6,77,0.00,,---,0.00,VWS V13.01,2013-04-19 10:35:00,
2013-04-19 06:40:00,67.3,59.8,0.00,SW,217,0.0,7.6,77,0.00,,---,0.00,VWS V13.01,2013-04-19 10:40:00,
2013-04-19 06:45:00,67.3,59.8,0.00,SSW,208,2.2,4.9,77,0.00,,---,0.00,VWS V13.01,2013-04-19 10:45:00,
2013-04-19 06:50:00,67.3,59.8,0.00,SW,234,4.0,5.8,77,0.00,,---,0.00,VWS V13.01,2013-04-19 10:50:00,
2013-04-19 06:55:00,67.3,59.8,0.00,SW,222,4.0,5.8,77,0.00,,---,0.00,VWS V13.01,2013-04-19 10:55:00,
2013-04-19 07:00:00,67.3,59.8,0.00,SW,229,3.6,3.6,77,0.00,,---,0.00,VWS V13.01,2013-04-19 11:00:00,
2013-04-19 07:05:00,67.5,60.0,0.00,SSW,205,4.0,6.7,77,0.00,,---,0.00,VWS V13.01,2013-04-19 11:05:00,
2013-04-19 07:10:00,67.5,60.0,0.00,SE,125,0.0,6.7,77,0.00,,---,0.00,VWS V13.01,2013-04-19 11:10:00,
2013-04-19 07:15:00,67.5,60.0,0.00,SW,222,0.0,6.7,77,0.00,,---,0.00,VWS V13.01,2013-04-19 11:15:00,
2013-04-19 07:20:00,67.5,59.6,0.00,WSW,249,3.1,3.6,76,0.00,,---,0.00,VWS V13.01,2013-04-19 11:20:00,
2013-04-19 07:25:00,67.6,59.8,0.00,SSW,204,3.1,6.3,76,0.00,,---,0.00,VWS V13.01,2013-04-19 11:25:00,
2013-04-19 07:30:00,67.6,59.8,0.00,SW,221,0.0,6.3,76,0.00,,---,0.00,VWS V13.01,2013-04-19 11:30:00,
2013-04-19 07:35:00,67.6,59.8,0.00,South,188,3.1,6.3,76,0.00,,---,0.00,VWS V13.01,2013-04-19 11:35:00,
2013-04-19 07:40:00,67.6,59.8,0.00,WSW,239,2.7,8.1,76,0.00,,---,0.00,VWS V13.01,2013-04-19 11:40:00,
2013-04-19 07:45:00,67.8,60.0,0.00,WSW,238,0.0,6.3,76,0.00,,---,0.00,VWS V13.01,2013-04-19 11:45:00,
2013-04-19 07:50:00,67.8,60.0,0.00,SE,143,3.1,6.3,76,0.00,,---,0.00,VWS V13.01,2013-04-19 11:50:00,
2013-04-19 07:55:00,68.0,59.8,0.00,SE,136,7.6,7.6,75,0.00,,---,0.00,VWS V13.01,2013-04-19 11:55:00,
2013-04-19 08:00:00,68.0,59.8,0.00,SE,135,3.1,7.6,75,0.00,,---,0.00,VWS V13.01,2013-04-19 12:00:00,
2013-04-19 08:05:00,68.2,60.0,0.00,WSW,248,0.0,8.1,75,0.00,,---,0.00,VWS V13.01,2013-04-19 12:05:00,
2013-04-19 08:10:00,68.4,60.1,0.00,South,184,3.1,8.1,75,0.00,,---,0.00,VWS V13.01,2013-04-19 12:10:00,
2013-04-19 08:15:00,68.4,59.8,0.00,SW,215,5.4,8.1,74,0.00,,---,0.00,VWS V13.01,2013-04-19 12:15:00,
2013-04-19 08:20:00,68.5,59.9,0.00,South,186,0.0,8.1,74,0.00,,---,0.00,VWS V13.01,2013-04-19 12:20:00,
2013-04-19 08:25:00,68.5,59.9,0.00,SSW,192,3.1,6.3,74,0.00,,---,0.00,VWS V13.01,2013-04-19 12:25:00,
2013-04-19 08:30:00,68.5,59.9,0.00,ESE,121,3.6,6.3,74,0.00,,---,0.00,VWS V13.01,2013-04-19 12:30:00,
2013-04-19 08:35:00,68.5,59.5,0.00,WSW,239,5.4,8.1,73,0.00,,---,0.00,VWS V13.01,2013-04-19 12:35:00,
2013-04-19 08:40:00,68.7,59.7,0.00,SW,220,0.0,0.0,73,0.00,,---,0.00,VWS V13.01,2013-04-19 12:40:00,
2013-04-19 08:45:00,68.7,59.7,0.00,SW,229,2.2,8.1,73,0.00,,---,0.00,VWS V13.01,2013-04-19 12:45:00,
2013-04-19 08:50:00,68.9,59.9,0.00,South,189,3.1,9.2,73,0.00,,---,0.00,VWS V13.01,2013-04-19 12:50:00,
2013-04-19 08:55:00,69.3,60.2,0.00,NNE,25,3.6,9.2,73,0.00,,---,0.00,VWS V13.01,2013-04-19 12:55:00,
2013-04-19 09:00:00,69.4,59.6,0.00,SW,234,2.7,9.2,71,0.00,,---,0.00,VWS V13.01,2013-04-19 13:00:00,
2013-04-19 09:05:00,69.4,59.2,0.00,SSW,200,5.8,12.3,70,0.00,,---,0.00,VWS V13.01,2013-04-19 13:05:00,
2013-04-19 09:10:00,69.4,59.2,0.00,SW,225,3.6,12.3,70,0.00,,---,0.00,VWS V13.01,2013-04-19 13:10:00,
2013-04-19 09:15:00,69.4,59.6,0.00,WNW,301,6.3,12.3,71,0.00,,---,0.00,VWS V13.01,2013-04-19 13:15:00,
2013-04-19 09:20:00,69.3,59.1,0.00,SW,216,3.1,4.0,70,0.00,,---,0.00,VWS V13.01,2013-04-19 13:20:00,
2013-04-19 09:25:00,69.3,59.5,0.00,SW,218,3.1,10.1,71,0.00,,---,0.00,VWS V13.01,2013-04-19 13:25:00,
2013-04-19 09:30:00,69.3,59.5,0.00,SSE,166,3.6,10.1,71,0.00,,---,0.00,VWS V13.01,2013-04-19 13:30:00,
2013-04-19 09:35:00,69.4,59.6,0.00,WSW,256,4.0,10.1,71,0.00,,---,0.00,VWS V13.01,2013-04-19 13:35:00,
2013-04-19 09:40:00,69.3,59.5,0.00,SW,220,5.4,10.1,71,0.00,,---,0.00,VWS V13.01,2013-04-19 13:40:00,
2013-04-19 09:45:00,69.4,60.0,0.00,ENE,77,5.4,7.6,72,0.00,,---,0.00,VWS V13.01,2013-04-19 13:45:00,
2013-04-19 09:50:00,69.6,60.2,0.00,SW,235,4.0,7.6,72,0.00,,---,0.00,VWS V13.01,2013-04-19 13:50:00,
2013-04-19 09:55:00,70.0,60.2,0.00,South,178,3.6,7.6,71,0.00,,---,0.00,VWS V13.01,2013-04-19 13:55:00,
2013-04-19 10:00:00,70.3,60.1,0.00,West,267,4.0,6.3,70,0.00,,---,0.00,VWS V13.01,2013-04-19 14:00:00,
2013-04-19 10:05:00,70.3,59.7,0.00,SW,234,4.9,10.5,69,0.00,,---,0.00,VWS V13.01,2013-04-19 14:05:00,
2013-04-19 10:10:00,70.3,60.1,0.00,WSW,251,4.0,10.5,70,0.00,,---,0.00,VWS V13.01,2013-04-19 14:10:00,
2013-04-19 10:15:00,70.2,60.3,0.00,ESE,102,3.1,10.5,71,0.00,,---,0.00,VWS V13.01,2013-04-19 14:15:00,
2013-04-19 10:20:00,70.2,60.3,0.00,SSW,207,5.4,5.4,71,0.00,,---,0.00,VWS V13.01,2013-04-19 14:20:00,
2013-04-19 10:25:00,70.9,61.0,0.00,SSE,155,0.0,6.3,71,0.00,,---,0.00,VWS V13.01,2013-04-19 14:25:00,
2013-04-19 10:30:00,71.6,60.9,0.00,South,172,3.1,6.3,69,0.00,,---,0.00,VWS V13.01,2013-04-19 14:30:00,
2013-04-19 10:35:00,72.1,60.6,0.00,SSE,152,3.1,8.7,67,0.00,,---,0.00,VWS V13.01,2013-04-19 14:35:00,
2013-04-19 10:40:00,72.1,60.2,0.00,West,281,2.2,3.1,66,0.00,,---,0.00,VWS V13.01,2013-04-19 14:40:00,
2013-04-19 10:45:00,72.1,59.7,0.00,SSW,207,10.5,10.5,65,0.00,,---,0.00,VWS V13.01,2013-04-19 14:45:00,
2013-04-19 10:50:00,72.3,59.9,0.00,SW,232,8.1,11.9,65,0.00,,---,0.00,VWS V13.01,2013-04-19 14:50:00,
2013-04-19 10:55:00,72.5,59.6,0.00,WSW,248,6.3,13.2,64,0.00,,---,0.00,VWS V13.01,2013-04-19 14:55:00,
2013-04-19 11:00:00,72.7,59.8,0.00,ESE,123,8.7,8.7,64,0.00,,---,0.00,VWS V13.01,2013-04-19 15:00:00,
2013-04-19 11:05:00,72.9,59.5,0.00,SW,230,5.8,8.7,63,0.00,,---,0.00,VWS V13.01,2013-04-19 15:05:00,
2013-04-19 11:10:00,72.9,59.5,0.00,South,182,3.6,16.8,63,0.00,,---,0.00,VWS V13.01,2013-04-19 15:10:00,
2013-04-19 11:15:00,73.0,59.3,0.00,SSW,194,0.0,16.8,62,0.00,,---,0.00,VWS V13.01,2013-04-19 15:15:00,
2013-04-19 11:20:00,72.9,59.5,0.00,NW,322,4.0,6.3,63,0.00,,---,0.00,VWS V13.01,2013-04-19 15:20:00,
2013-04-19 11:25:00,72.7,59.4,0.00,SSE,160,5.4,8.3,63,0.00,,---,0.00,VWS V13.01,2013-04-19 15:25:00,
2013-04-19 11:30:00,72.7,59.8,0.00,SE,129,10.5,10.5,64,0.00,,---,0.00,VWS V13.01,2013-04-19 15:30:00,
2013-04-19 11:35:00,72.7,59.8,0.00,North,353,2.2,10.5,64,0.00,,---,0.00,VWS V13.01,2013-04-19 15:35:00,
2013-04-19 11:40:00,73.2,60.3,0.00,East,89,4.0,4.0,64,0.00,,---,0.00,VWS V13.01,2013-04-19 15:40:00,
2013-04-19 11:45:00,74.5,60.6,0.00,SW,229,4.0,8.3,62,0.00,,---,0.00,VWS V13.01,2013-04-19 15:45:00,
2013-04-19 11:50:00,74.8,59.6,0.00,South,186,6.3,13.2,59,0.00,,---,0.00,VWS V13.01,2013-04-19 15:50:00,
2013-04-19 11:55:00,74.8,60.0,0.00,ENE,73,2.7,13.2,60,0.00,,---,0.00,VWS V13.01,2013-04-19 15:55:00,
2013-04-19 12:00:00,74.5,59.7,0.00,ENE,69,6.3,6.3,60,0.00,,---,0.00,VWS V13.01,2013-04-19 16:00:00,
2013-04-19 12:05:00,73.9,59.7,0.00,ENE,76,2.7,10.5,61,0.00,,---,0.00,VWS V13.01,2013-04-19 16:05:00,
2013-04-19 12:10:00,73.8,59.9,0.00,WSW,242,4.0,10.5,62,0.00,,---,0.00,VWS V13.01,2013-04-19 16:10:00,
2013-04-19 12:15:00,73.9,59.7,0.00,SW,220,7.6,12.3,61,0.00,,---,0.00,VWS V13.01,2013-04-19 16:15:00,
2013-04-19 12:20:00,73.9,59.7,0.00,SSW,204,5.4,8.3,61,0.00,,---,0.00,VWS V13.01,2013-04-19 16:20:00,
2013-04-19 12:25:00,74.1,59.8,0.00,West,265,2.7,8.3,61,0.00,,---,0.00,VWS V13.01,2013-04-19 16:25:00,
2013-04-19 12:30:00,74.3,60.0,0.00,South,191,5.8,9.6,61,0.00,,---,0.00,VWS V13.01,2013-04-19 16:30:00,
2013-04-19 12:35:00,74.8,60.0,0.00,SSW,207,5.8,10.5,60,0.00,,---,0.00,VWS V13.01,2013-04-19 16:35:00,
2013-04-19 12:40:00,75.4,59.6,0.00,SW,223,6.3,6.3,58,0.00,,---,0.00,VWS V13.01,2013-04-19 16:40:00,
2013-04-19 12:45:00,75.7,59.4,0.00,SSW,193,2.7,16.3,57,0.00,,---,0.00,VWS V13.01,2013-04-19 16:45:00,
2013-04-19 12:50:00,75.7,59.0,0.00,WSW,248,4.0,16.3,56,0.00,,---,0.00,VWS V13.01,2013-04-19 16:50:00,
2013-04-19 12:55:00,75.9,59.6,0.00,NW,311,3.1,16.3,57,0.00,,---,0.00,VWS V13.01,2013-04-19 16:55:00,
2013-04-19 13:00:00,76.1,58.8,0.00,SW,218,3.6,10.1,55,0.00,,---,0.00,VWS V13.01,2013-04-19 17:00:00,
2013-04-19 13:05:00,75.9,58.6,0.00,NE,37,2.7,11.0,55,0.00,,---,0.00,VWS V13.01,2013-04-19 17:05:00,
2013-04-19 13:10:00,75.7,59.0,0.00,WSW,241,4.9,11.0,56,0.00,,---,0.00,VWS V13.01,2013-04-19 17:10:00,
2013-04-19 13:15:00,75.7,59.0,0.00,SSW,210,4.9,11.0,56,0.00,,---,0.00,VWS V13.01,2013-04-19 17:15:00,
2013-04-19 13:20:00,75.7,59.0,0.00,SW,225,8.7,8.7,56,0.00,,---,0.00,VWS V13.01,2013-04-19 17:20:00,
2013-04-19 13:25:00,75.7,59.0,0.00,SSW,197,5.8,10.1,56,0.00,,---,0.00,VWS V13.01,2013-04-19 17:25:00,
2013-04-19 13:30:00,75.7,59.0,0.00,ESE,119,3.6,10.1,56,0.00,,---,0.00,VWS V13.01,2013-04-19 17:30:00,
2013-04-19 13:35:00,75.7,58.4,0.00,WSW,249,6.7,11.0,55,0.00,,---,0.00,VWS V13.01,2013-04-19 17:35:00,
2013-04-19 13:40:00,75.9,59.1,0.00,North,353,3.6,3.6,56,0.00,,---,0.00,VWS V13.01,2013-04-19 17:40:00,
2013-04-19 13:45:00,75.7,59.0,0.00,WSW,252,5.4,10.5,56,0.00,,---,0.00,VWS V13.01,2013-04-19 17:45:00,
2013-04-19 13:50:00,75.9,59.1,0.00,SSW,204,8.1,10.5,56,0.00,,---,0.00,VWS V13.01,2013-04-19 17:50:00,
2013-04-19 13:55:00,75.9,59.1,0.00,North,357,2.7,10.5,56,0.00,,---,0.00,VWS V13.01,2013-04-19 17:55:00,
2013-04-19 14:00:00,75.9,58.6,0.00,West,259,5.4,11.0,55,0.00,,---,0.00,VWS V13.01,2013-04-19 18:00:00,
2013-04-19 14:05:00,76.1,59.3,0.00,WNW,288,3.6,11.0,56,0.00,,---,0.00,VWS V13.01,2013-04-19 18:05:00,
2013-04-19 14:10:00,76.3,59.5,0.00,SSW,198,8.3,12.3,56,0.00,,---,0.00,VWS V13.01,2013-04-19 18:10:00,
2013-04-19 14:15:00,76.3,58.9,0.00,West,267,6.7,12.3,55,0.00,,---,0.00,VWS V13.01,2013-04-19 18:15:00,
2013-04-19 14:20:00,76.3,58.9,0.00,WSW,240,4.0,4.0,55,0.00,,---,0.00,VWS V13.01,2013-04-19 18:20:00,
2013-04-19 14:25:00,76.5,59.6,0.00,North,0,5.4,7.2,56,0.00,,---,0.00,VWS V13.01,2013-04-19 18:25:00,
2013-04-19 14:30:00,76.6,58.8,0.00,ESE,116,8.1,11.9,54,0.00,,---,0.00,VWS V13.01,2013-04-19 18:30:00,
2013-04-19 14:35:00,77.2,58.7,0.00,ESE,112,8.1,11.9,53,0.00,,---,0.00,VWS V13.01,2013-04-19 18:35:00,
2013-04-19 14:40:00,77.2,58.7,0.00,SSE,160,8.3,8.3,53,0.00,,---,0.00,VWS V13.01,2013-04-19 18:40:00,
2013-04-19 14:45:00,77.0,58.6,0.00,SE,143,3.6,8.7,53,0.00,,---,0.00,VWS V13.01,2013-04-19 18:45:00,
2013-04-19 14:50:00,77.0,59.1,0.00,ENE,70,3.6,8.7,54,0.00,,---,0.00,VWS V13.01,2013-04-19 18:50:00,
2013-04-19 14:55:00,76.8,58.4,0.00,South,181,4.0,10.1,53,0.00,,---,0.00,VWS V13.01,2013-04-19 18:55:00,
2013-04-19 15:00:00,76.8,58.9,0.00,WSW,244,7.6,7.6,54,0.00,,---,0.00,VWS V13.01,2013-04-19 19:00:00,
2013-04-19 15:05:00,77.0,58.6,0.00,SW,234,5.8,12.3,53,0.00,,---,0.00,VWS V13.01,2013-04-19 19:05:00,
2013-04-19 15:10:00,77.4,58.9,0.00,SSW,194,0.0,12.3,53,0.00,,---,0.00,VWS V13.01,2013-04-19 19:10:00,
2013-04-19 15:15:00,77.4,58.9,0.00,SSW,210,4.0,12.3,53,0.00,,---,0.00,VWS V13.01,2013-04-19 19:15:00,
2013-04-19 15:20:00,77.4,58.9,0.00,SSW,203,6.3,6.3,53,0.00,,---,0.00,VWS V13.01,2013-04-19 19:20:00,
2013-04-19 15:25:00,77.4,59.4,0.00,SSW,198,3.1,9.6,54,0.00,,---,0.00,VWS V13.01,2013-04-19 19:25:00,
2013-04-19 15:30:00,77.4,60.0,0.00,South,186,5.4,9.6,55,0.00,,---,0.00,VWS V13.01,2013-04-19 19:30:00,
2013-04-19 15:35:00,77.4,60.5,0.00,SSW,201,8.1,9.6,56,0.00,,---,0.00,VWS V13.01,2013-04-19 19:35:00,
2013-04-19 15:40:00,77.5,60.6,0.00,SE,146,2.2,3.1,56,0.00,,---,0.00,VWS V13.01,2013-04-19 19:40:00,
2013-04-19 15:45:00,77.5,60.6,0.00,SE,140,5.8,8.1,56,0.00,,---,0.00,VWS V13.01,2013-04-19 19:45:00,
2013-04-19 15:50:00,77.5,60.6,0.00,SSW,204,4.0,10.5,56,0.00,,---,0.00,VWS V13.01,2013-04-19 19:50:00,
2013-04-19 15:55:00,77.7,60.3,0.00,South,187,4.9,10.5,55,0.00,,---,0.00,VWS V13.01,2013-04-19 19:55:00,
2013-04-19 16:00:00,77.7,60.3,0.00,SSW,209,3.1,5.4,55,0.00,,---,0.00,VWS V13.01,2013-04-19 20:00:00,
2013-04-19 16:05:00,77.7,59.8,0.00,NNW,330,4.0,10.5,54,0.00,,---,0.00,VWS V13.01,2013-04-19 20:05:00,
2013-04-19 16:10:00,77.5,60.1,0.00,WNW,303,5.8,11.0,55,0.00,,---,0.00,VWS V13.01,2013-04-19 20:10:00,
2013-04-19 16:15:00,77.4,60.0,0.00,SSW,192,2.2,11.0,55,0.00,,---,0.00,VWS V13.01,2013-04-19 20:15:00,
2013-04-19 16:20:00,76.8,60.0,0.00,West,271,0.0,0.0,56,0.00,,---,0.00,VWS V13.01,2013-04-19 20:20:00,
2013-04-19 16:25:00,75.2,61.8,0.00,ESE,123,0.0,10.1,63,0.08,,---,0.12,VWS V13.01,2013-04-19 20:25:00,
2013-04-19 16:30:00,71.8,63.4,0.00,NNW,338,2.7,10.1,75,0.24,,---,0.24,VWS V13.01,2013-04-19 20:30:00,
2013-04-19 16:41:00,67.1,63.1,0.00,WSW,240,3.6,3.6,87,0.00,,---,0.00,VWS V13.01,2013-04-19 20:41:00,
2013-04-19 16:46:00,66.4,63.7,0.00,SW,234,4.0,8.7,91,0.51,,---,0.51,VWS V13.01,2013-04-19 20:46:00,
2013-04-19 16:51:00,66.0,63.9,0.00,WNW,297,3.6,10.5,93,0.51,,---,0.51,VWS V13.01,2013-04-19 20:51:00,
2013-04-19 16:56:00,66.0,64.2,0.00,WSW,242,5.4,10.5,94,0.51,,---,0.51,VWS V13.01,2013-04-19 20:56:00,
2013-04-19 17:01:00,66.0,64.6,0.00,SW,214,8.3,10.5,95,0.51,,---,0.51,VWS V13.01,2013-04-19 21:01:00,
2013-04-19 17:06:00,66.0,64.8,0.00,SSE,168,0.0,10.5,96,0.51,,---,0.51,VWS V13.01,2013-04-19 21:06:00,
2013-04-19 17:11:00,66.4,65.2,0.00,SSW,201,0.0,10.5,96,0.51,,---,0.51,VWS V13.01,2013-04-19 21:11:00,
2013-04-19 17:16:00,66.6,65.4,0.00,West,261,0.0,10.5,96,0.51,,---,0.51,VWS V13.01,2013-04-19 21:16:00,
2013-04-19 17:21:00,66.6,65.4,0.00,South,177,4.0,4.0,96,0.51,,---,0.51,VWS V13.01,2013-04-19 21:21:00,
2013-04-19 17:26:00,66.9,65.8,0.00,SE,138,2.7,7.2,96,0.51,,---,0.51,VWS V13.01,2013-04-19 21:26:00,
2013-04-19 17:31:00,66.9,65.8,0.00,SW,223,3.1,7.2,96,0.51,,---,0.51,VWS V13.01,2013-04-19 21:31:00,
2013-04-19 17:36:00,67.1,65.6,0.00,SW,216,0.0,7.2,95,0.51,,---,0.51,VWS V13.01,2013-04-19 21:36:00,
2013-04-19 17:41:00,67.3,65.8,0.00,West,273,0.0,0.0,95,0.51,,---,0.51,VWS V13.01,2013-04-19 21:41:00,
2013-04-19 17:46:00,67.5,65.7,0.00,SSW,198,6.3,7.6,94,0.51,,---,0.51,VWS V13.01,2013-04-19 21:46:00,
2013-04-19 17:51:00,67.5,65.7,0.00,SSW,194,4.0,7.6,94,0.51,,---,0.51,VWS V13.01,2013-04-19 21:51:00,
2013-04-19 17:56:00,67.5,65.4,0.00,South,171,2.2,10.5,93,0.51,,---,0.51,VWS V13.01,2013-04-19 21:56:00,
2013-04-19 18:01:00,67.5,65.4,0.00,WSW,244,0.0,2.7,93,0.04,,---,0.55,VWS V13.01,2013-04-19 22:01:00,
2013-04-19 18:06:00,67.5,65.4,0.00,WSW,240,2.7,4.5,93,0.04,,---,0.55,VWS V13.01,2013-04-19 22:06:00,
2013-04-19 18:11:00,67.5,65.4,0.00,SSW,211,3.6,4.5,93,0.04,,---,0.55,VWS V13.01,2013-04-19 22:11:00,
2013-04-19 18:16:00,67.5,65.4,0.00,ESE,109,2.7,5.8,93,0.04,,---,0.55,VWS V13.01,2013-04-19 22:16:00,
2013-04-19 18:21:00,67.5,65.7,0.00,WSW,242,2.7,5.4,94,0.04,,---,0.55,VWS V13.01,2013-04-19 22:21:00,
2013-04-19 18:26:00,67.5,66.0,0.00,West,263,3.1,6.3,95,0.04,,---,0.55,VWS V13.01,2013-04-19 22:26:00,
2013-04-19 18:31:00,67.5,66.0,0.00,SW,225,3.1,7.2,95,0.04,,---,0.55,VWS V13.01,2013-04-19 22:31:00,
2013-04-19 18:36:00,67.5,66.0,0.00,SW,234,2.7,7.2,95,0.04,,---,0.55,VWS V13.01,2013-04-19 22:36:00,
2013-04-19 18:41:00,67.5,66.0,0.00,SSE,152,3.1,6.3,95,0.04,,---,0.55,VWS V13.01,2013-04-19 22:41:00,
2013-04-19 18:46:00,67.3,65.8,0.00,South,185,0.0,7.6,95,0.04,,---,0.55,VWS V13.01,2013-04-19 22:46:00,
2013-04-19 18:51:00,67.3,65.8,0.00,SW,219,0.0,7.6,95,0.04,,---,0.55,VWS V13.01,2013-04-19 22:51:00,
2013-04-19 18:56:00,67.1,65.6,0.00,ESE,104,3.1,7.6,95,0.04,,---,0.55,VWS V13.01,2013-04-19 22:56:00,
2013-04-19 19:01:00,67.1,65.6,0.00,SW,232,3.6,4.9,95,0.00,,---,0.55,VWS V13.01,2013-04-19 23:01:00,
2013-04-19 19:06:00,67.1,65.6,0.00,WSW,255,0.0,4.9,95,0.00,,---,0.55,VWS V13.01,2013-04-19 23:06:00,
2013-04-19 19:11:00,67.1,65.6,0.00,WSW,250,0.0,4.9,95,0.00,,---,0.55,VWS V13.01,2013-04-19 23:11:00,
2013-04-19 19:16:00,66.9,65.4,0.00,SSW,205,0.0,7.6,95,0.00,,---,0.55,VWS V13.01,2013-04-19 23:16:00,
2013-04-19 19:22:00,66.9,65.4,0.00,SW,223,0.0,0.0,95,0.00,,---,0.55,VWS V13.01,2013-04-19 23:22:00,
2013-04-19 19:27:00,66.9,65.4,0.00,South,171,0.0,5.8,95,0.00,,---,0.55,VWS V13.01,2013-04-19 23:27:00,
2013-04-19 19:31:00,66.9,65.8,0.00,SW,226,3.1,7.6,96,0.00,,---,0.55,VWS V13.01,2013-04-19 23:31:00,
2013-04-19 19:37:00,66.7,65.6,0.00,SW,225,0.0,7.6,96,0.00,,---,0.55,VWS V13.01,2013-04-19 23:37:00,
2013-04-19 19:42:00,66.7,65.6,0.00,ESE,104,0.0,0.0,96,0.00,,---,0.55,VWS V13.01,2013-04-19 23:42:00,
2013-04-19 19:46:00,66.7,65.6,0.00,SSE,153,0.0,5.4,96,0.00,,---,0.55,VWS V13.01,2013-04-19 23:46:00,
2013-04-19 19:51:00,66.7,65.6,0.00,NNE,32,0.0,5.4,96,0.00,,---,0.55,VWS V13.01,2013-04-19 23:51:00,
2013-04-19 19:56:00,66.7,65.6,0.00,SW,235,0.0,5.4,96,0.00,,---,0.55,VWS V13.01,2013-04-19 23:56:00,
2013-04-19 20:01:00,66.7,65.6,0.00,ESE,118,0.0,0.0,96,0.04,,---,0.59,VWS V13.01,2013-04-20 00:01:00,
2013-04-19 20:06:00,66.6,65.4,0.00,SSE,160,0.0,2.2,96,0.04,,---,0.59,VWS V13.01,2013-04-20 00:06:00,
2013-04-19 20:11:00,66.6,65.4,0.00,SE,136,0.0,4.0,96,0.04,,---,0.59,VWS V13.01,2013-04-20 00:11:00,
2013-04-19 20:16:00,66.6,65.4,0.00,SW,223,2.2,4.0,96,0.04,,---,0.59,VWS V13.01,2013-04-20 00:16:00,
2013-04-19 20:21:00,66.6,65.4,0.00,WSW,244,0.0,3.1,96,0.04,,---,0.59,VWS V13.01,2013-04-20 00:21:00,
2013-04-19 20:26:00,66.6,65.4,0.00,ESE,108,0.0,3.1,96,0.04,,---,0.59,VWS V13.01,2013-04-20 00:26:00,
2013-04-19 20:31:00,66.6,65.4,0.00,SE,128,0.0,3.1,96,0.04,,---,0.59,VWS V13.01,2013-04-20 00:31:00,
2013-04-19 20:36:00,66.4,65.2,0.00,SE,138,4.0,4.0,96,0.04,,---,0.59,VWS V13.01,2013-04-20 00:36:00,
2013-04-19 20:41:00,66.4,65.2,0.00,South,187,2.7,4.0,96,0.08,,---,0.63,VWS V13.01,2013-04-20 00:41:00,
2013-04-19 20:46:00,66.2,65.0,0.00,SSW,201,0.0,4.0,96,0.08,,---,0.63,VWS V13.01,2013-04-20 00:46:00,
2013-04-19 20:51:00,66.2,65.0,0.00,WSW,248,0.0,4.0,96,0.08,,---,0.63,VWS V13.01,2013-04-20 00:51:00,
2013-04-19 20:57:00,66.2,65.0,0.00,South,191,0.0,4.0,96,0.08,,---,0.63,VWS V13.01,2013-04-20 00:57:00,
2013-04-19 21:02:00,66.2,65.0,0.00,SSW,213,0.0,0.0,96,0.04,,---,0.63,VWS V13.01,2013-04-20 01:02:00,
2013-04-19 21:07:00,66.2,65.0,0.00,SSW,200,0.0,2.7,96,0.04,,---,0.63,VWS V13.01,2013-04-20 01:07:00,
2013-04-19 21:12:00,66.0,65.2,0.00,North,0,0.0,2.7,97,0.04,,---,0.63,VWS V13.01,2013-04-20 01:12:00,
2013-04-19 21:17:00,66.0,64.8,0.00,ENE,59,0.0,2.7,96,0.04,,---,0.63,VWS V13.01,2013-04-20 01:17:00,
2013-04-19 21:21:00,66.0,64.8,0.00,WSW,256,0.0,0.0,96,0.04,,---,0.63,VWS V13.01,2013-04-20 01:21:00,
2013-04-19 21:27:00,66.0,64.8,0.00,WSW,242,0.0,0.0,96,0.04,,---,0.63,VWS V13.01,2013-04-20 01:27:00,
2013-04-19 21:32:00,65.8,64.7,0.00,SSW,193,0.0,3.6,96,0.04,,---,0.63,VWS V13.01,2013-04-20 01:32:00,
2013-04-19 21:37:00,65.8,65.0,0.00,SW,221,0.0,3.6,97,0.04,,---,0.63,VWS V13.01,2013-04-20 01:37:00,
2013-04-19 21:42:00,65.7,64.8,0.00,NW,325,0.0,3.1,97,0.00,,---,0.63,VWS V13.01,2013-04-20 01:42:00,
2013-04-19 21:47:00,65.7,64.5,0.00,East,81,0.0,3.1,96,0.00,,---,0.63,VWS V13.01,2013-04-20 01:47:00,
2013-04-19 21:52:00,65.7,64.5,0.00,WSW,252,0.0,5.4,96,0.00,,---,0.63,VWS V13.01,2013-04-20 01:52:00,
2013-04-19 21:57:00,65.5,64.3,0.00,West,263,0.0,5.4,96,0.00,,---,0.63,VWS V13.01,2013-04-20 01:57:00,
2013-04-19 22:02:00,65.5,64.3,0.00,NNW,334,0.0,0.0,96,0.00,,---,0.63,VWS V13.01,2013-04-20 02:02:00,
2013-04-19 22:07:00,65.5,64.3,0.00,WSW,240,0.0,2.7,96,0.00,,---,0.63,VWS V13.01,2013-04-20 02:07:00,
2013-04-19 22:12:00,65.3,64.1,0.00,NW,315,0.0,2.7,96,0.00,,---,0.63,VWS V13.01,2013-04-20 02:12:00,
2013-04-19 22:18:00,65.1,64.0,0.00,NNW,327,3.1,5.4,96,0.00,,---,0.63,VWS V13.01,2013-04-20 02:18:00,
2013-04-19 22:23:00,64.8,63.3,0.00,WNW,300,5.4,5.4,95,0.00,,---,0.63,VWS V13.01,2013-04-20 02:23:00,
2013-04-19 22:28:00,64.0,62.3,0.00,NNW,345,5.4,6.3,94,0.00,,---,0.63,VWS V13.01,2013-04-20 02:28:00,
2013-04-19 22:33:00,63.0,60.6,0.00,NW,325,2.7,6.3,92,0.00,,---,0.63,VWS V13.01,2013-04-20 02:33:00,
2013-04-19 22:38:00,61.7,58.7,0.00,NNW,338,2.2,6.3,90,0.00,,---,0.63,VWS V13.01,2013-04-20 02:38:00,
2013-04-19 22:43:00,61.0,57.4,0.00,NW,325,0.0,3.6,88,0.00,,---,0.63,VWS V13.01,2013-04-20 02:43:00,
2013-04-19 22:48:00,60.4,56.2,0.00,NNW,331,2.7,3.6,86,0.00,,---,0.63,VWS V13.01,2013-04-20 02:48:00,
2013-04-19 22:53:00,60.1,55.9,0.00,NNW,344,2.2,4.0,86,0.00,,---,0.63,VWS V13.01,2013-04-20 02:53:00,
2013-04-19 22:58:00,59.9,55.4,0.00,NNW,333,2.7,4.0,85,0.00,,---,0.63,VWS V13.01,2013-04-20 02:58:00,
2013-04-19 23:03:00,59.7,55.2,0.00,NNW,329,0.0,2.7,85,0.00,,---,0.63,VWS V13.01,2013-04-20 03:03:00,
2013-04-19 23:08:00,59.5,54.7,0.00,NNW,334,2.7,3.6,84,0.00,,---,0.63,VWS V13.01,2013-04-20 03:08:00,
2013-04-19 23:13:00,59.4,54.2,0.00,NNW,333,2.7,4.0,83,0.00,,---,0.63,VWS V13.01,2013-04-20 03:13:00,
2013-04-19 23:18:00,59.2,54.0,0.00,NW,318,3.6,4.0,83,0.00,,---,0.63,VWS V13.01,2013-04-20 03:18:00,
2013-04-19 23:23:00,59.0,53.5,0.00,NW,321,3.1,4.9,82,0.00,,---,0.63,VWS V13.01,2013-04-20 03:23:00,
2013-04-19 23:28:00,58.8,53.0,0.00,NW,324,4.0,5.4,81,0.00,,---,0.63,VWS V13.01,2013-04-20 03:28:00,
2013-04-19 23:33:00,58.6,52.2,0.00,NW,325,0.0,5.4,79,0.00,,---,0.63,VWS V13.01,2013-04-20 03:33:00,
2013-04-19 23:38:00,58.5,50.2,0.00,NW,305,2.7,6.3,74,0.00,,---,0.63,VWS V13.01,2013-04-20 03:38:00,
2013-04-19 23:43:00,58.1,49.5,0.00,NW,312,2.7,6.3,73,0.00,,---,0.63,VWS V13.01,2013-04-20 03:43:00,
2013-04-19 23:48:00,57.7,47.7,0.00,NNW,330,4.0,6.3,69,0.00,,---,0.63,VWS V13.01,2013-04-20 03:48:00,
2013-04-19 23:53:00,57.6,46.3,0.00,NW,324,3.1,6.3,66,0.00,,---,0.63,VWS V13.01,2013-04-20 03:53:00,
2013-04-19 23:59:00,57.6,46.3,0.00,NNW,329,3.1,6.3,66,0.00,,---,0.63,VWS V13.01,2013-04-20 03:59:00,